Location: Unspecified
(38.9820°N, 94.4650°W)
Time: 05:27:07
(UTC-05:00)

Okean 3 - Visible Passes

Search period start: 01 November 2014 00:00
Search period end: 10 November 2014 23:00
Orbit: 583 x 609 km, 82.5° (Epoch: 31 October)

Date Brightness Start Highest point End Pass type
(mag) Time Alt. Az. Time Alt. Az. Time Alt. Az.
03 Nov 6.0 19:23:22 10° S 19:23:36 11° S 19:23:36 11° S visible
04 Nov 6.4 05:31:34 10° NE 05:34:11 16° ENE 05:36:47 10° ESE visible
04 Nov 5.3 19:33:30 10° SSW 19:35:18 24° SSW 19:35:18 24° SSW visible
05 Nov 5.9 05:40:56 10° NNE 05:44:26 24° ENE 05:47:52 10° SE visible
05 Nov 5.1 18:08:21 10° ESE 18:10:15 15° E 18:10:15 15° E visible
05 Nov 5.0 19:43:52 10° SSW 19:47:02 35° WSW 19:47:02 35° WSW visible
06 Nov 5.0 05:50:38 10° N 05:54:36 38° ENE 05:58:31 10° SSE visible
06 Nov 4.5 18:17:20 10° SE 18:20:49 24° E 18:21:59 21° ENE visible
06 Nov 5.6 19:54:31 10° SW 19:58:05 25° WNW 19:58:46 24° WNW visible
07 Nov 4.0 06:00:31 10° N 06:04:44 63° E 06:08:52 10° SSE visible
07 Nov 3.9 18:26:47 10° SSE 18:30:47 38° E 18:33:41 17° NNE visible
07 Nov 6.3 20:05:36 10° WSW 20:08:19 16° WNW 20:10:28 12° NW visible
08 Nov 3.4 06:10:34 10° N 06:14:48 78° W 06:18:58 10° S visible
08 Nov 3.4 18:36:32 10° S 18:40:47 63° E 18:45:03 10° NNE visible
08 Nov 6.8 20:18:04 10° WNW 20:18:35 10° WNW 20:19:07 10° WNW visible
09 Nov 6.6 04:45:15 10° NE 04:47:09 13° ENE 04:49:02 10° E visible
09 Nov 3.7 06:20:45 10° NNW 06:24:48 46° W 06:28:49 10° SSW visible
09 Nov 3.5 18:46:31 10° S 18:50:50 80° W 18:55:09 10° N visible
10 Nov 6.1 04:54:17 10° NNE 04:57:23 20° ENE 05:00:29 10° ESE visible
10 Nov 4.4 18:56:45 10° SSW 19:00:55 48° W 19:05:06 10° N visible
